星链-37317(STARLINK-37317)

导读

STARLINK-37317(NORAD编号69152)是美国太空探索技术公司(SpaceX)星链(Starlink)项目的低轨互联网卫星,采用Starlink v1.5卫星平台,目前仍在轨正常运行。该卫星运行在近地轨道,近地点高度约538.84千米,远地点约540.66千米,轨道倾角53.218°,轨道周期约95.44分钟,每日绕地球飞行约15.09圈,属于星链星座中提供全球卫星互联网覆盖的组网卫星,由SpaceX自主研发制造并运营。

基本信息
目录编号:
69152
目录名称:
STARLINK-37317
国际标识:
2026-111E
轨道中心:
EARTH
卫星名称:
星链-37317
卫星全名:
星链-37317(STARLINK-37317)
卫星状态:
在轨 (已飞行68 天)
发射日期:
2026-05-21 UTC
国别 :
美国 (US)
星等 :
--
轨道信息
数据来源 国际轨道数据
星历时间: 2026-07-27T01:36:06+0800
1天前
查看轨道信息
半长轴: 6840.784km
偏心率: 0.0001144
轨道倾角: 53.159°
近地点辐角 97.363°
升交点赤经 326.668°
平近点角 262.751°
近地点: 461.864km
远地点: 463.43km
周期: 93.847分钟
每日圈数: 15.34419
详细信息
固有亮度:
5
最大亮度:
2.5
卫星平台:
Starlink V1.0
覆盖范围:
全球
运营商:
太空探索技术公司
运营商所在国:
美国
制造商(研发单位):
太空探索技术公司
制造商所在国:
美国
使用方式:
暂无
卫星简介
Starlink 计划是 SpaceX 推出的全球卫星互联网项目,通过发射低轨道卫星,为全球尤其是偏远地区提供高速、低延迟的互联网服务。自 2019 年起,Starlink 已部署数千颗卫星,旨在缩小全球数字鸿沟,推动互联网普及。该项目还为军事、航空等行业提供通信支持,带来广泛经济效益。
2D轨道图
3D轨道图
轨道高度分析图
轨道倾角分析图
轨道综合分析图
查看轨道综合分析图